FW5399 Weather Reports


Display with metric or nautical units.
time (UTC)temp
F
wind
direction
speed
MPH
gust
MPH
rain 1hr
in
rain 24hr
in
rain mn
in
humidity
%
barometer
mb
20260904101640 49 65 0.0 3.0 0.00 0.06 0.06 91 1013.1
20260904101139 49 57 0.0 3.0 0.00 0.06 0.06 91 1012.9
20260904100639 49 9 0.0 1.0 0.00 0.06 0.06 92 1013.0
20260904100141 50 8 0.0 1.0 0.00 0.06 0.06 90 1013.0
20260904095638 51 30 1.0 4.0 0.00 0.06 0.06 89 1012.9
20260904095136 50 32 1.0 4.0 0.00 0.06 0.06 88 1012.7
20260904094638 50 203 1.0 5.0 0.00 0.06 0.06 91 1012.7
20260904094521 50 323 1.0 5.0 0.00 0.06 0.06 92 1012.5
20260904093633 49 163 1.0 6.0 0.00 0.06 0.06 96 1012.3
20260904093132 49 309 0.0 6.0 0.00 0.06 0.06 97 1012.4
20260904092632 47 312 0.0 2.0 0.00 0.06 0.06 97 1012.5
20260904092131 47 237 0.0 1.0 0.00 0.06 0.06 95 1012.4
20260904091630 48 237 0.0 1.0 0.00 0.06 0.06 95 1012.3
20260904091128 48 237 0.0 0.0 0.00 0.06 0.06 94 1012.3
20260904090633 49 236 0.0 0.0 0.00 0.06 0.06 95 1012.3
20260904090128 50 237 0.0 0.0 0.00 0.06 0.06 94 1012.0
20260904085622 50 237 0.0 0.0 0.00 0.06 0.06 94 1011.8
20260904085121 51 237 0.0 0.0 0.00 0.06 0.06 94 1011.6
20260904084615 51 237 0.0 1.0 0.00 0.06 0.06 93 1011.5
20260904084112 52 232 0.0 6.0 0.00 0.06 0.06 93 1011.3
20260904083603 53 282 0.0 6.0 0.00 0.06 0.06 92 1011.2
20260904083058 53 215 1.0 4.0 0.00 0.06 0.06 92 1011.1
20260904082551 53 357 0.0 3.0 0.00 0.06 0.06 94 1011.1
20260904082046 52 352 0.0 3.0 0.00 0.06 0.06 95 1011.1
20260904081542 52 319 0.0 1.0 0.00 0.06 0.06 95 1011.1
20260904081033 53 334 0.0 2.0 0.00 0.06 0.06 95 1011.1
20260904080527 53 338 0.0 3.0 0.00 0.06 0.06 96 1010.9
20260904080021 52 260 0.0 6.0 0.00 0.06 0.06 97 1010.8
20260904075516 52 293 1.0 6.0 0.00 0.06 0.06 99 1010.6
20260904075012 52 298 0.0 2.0 0.00 0.06 0.06 99 1010.7
20260904074504 51 296 0.0 1.0 0.00 0.06 0.06 99 1010.7
20260904073957 51 126 0.0 1.0 0.00 0.06 0.06 98 1010.8
20260904073452 51 123 0.0 1.0 0.00 0.06 0.06 98 1010.8
20260904072945 51 123 0.0 1.0 0.00 0.06 0.06 97 1010.9
20260904072441 52 123 0.0 1.0 0.00 0.06 0.06 98 1010.8
20260904071933 51 159 0.0 1.0 0.00 0.06 0.06 97 1010.7
20260904071427 52 159 0.0 1.0 0.00 0.06 0.06 97 1010.5
20260904070925 52 159 0.0 1.0 0.00 0.06 0.06 97 1010.5
20260904070419 53 159 0.0 1.0 0.00 0.06 0.06 97 1010.5
20260904065905 53 159 0.0 1.0 0.00 0.06 0.06 97 1010.4
20260904065401 54 159 0.0 1.0 0.00 0.06 0.06 97 1010.5
20260904064854 54 158 0.0 0.0 0.00 0.06 0.06 97 1010.6
20260904064347 54 158 0.0 0.0 0.00 0.06 0.06 96 1010.5
20260904063849 55 158 0.0 0.0 0.00 0.06 0.06 97 1010.5
20260904063336 55 158 0.0 0.0 0.00 0.06 0.06 96 1010.4
20260904062832 55 158 0.0 1.0 0.00 0.06 0.06 96 1010.2
20260904062721 56 158 0.0 1.0 0.00 0.06 0.06 96 1010.1
20260904061817 56 158 0.0 0.0 0.00 0.06 0.06 96 1010.1
20260904061709 57 158 0.0 1.0 0.00 0.06 0.06 96 1010.1
20260904060805 57 158 0.0 1.0 0.01 0.06 0.06 96 1009.9
20260904060301 58 158 0.0 1.0 0.01 0.06 0.06 96 1009.9
20260904060221 58 158 0.0 1.0 0.01 0.06 0.06 95 1010.0
20260904055640 59 158 0.0 1.0 0.01 0.06 0.06 96 1010.0
20260904054744 59 158 0.0 2.0 0.01 0.06 0.06 96 1010.0
20260904054244 59 158 0.0 2.0 0.01 0.06 0.06 96 1010.0
20260904053744 59 180 1.0 2.0 0.01 0.06 0.06 96 1010.1
20260904053649 59 172 1.0 4.0 0.01 0.06 0.06 95 1009.8
20260904052741 59 125 1.0 4.0 0.01 0.06 0.06 95 1009.6
20260904052235 59 199 0.0 2.0 0.01 0.06 0.06 95 1009.5
20260904051735 60 187 0.0 2.0 0.01 0.06 0.06 94 1009.4
20260904051232 60 2 1.0 4.0 0.02 0.06 0.06 94 1009.4
20260904050732 60 46 1.0 4.0 0.01 0.05 0.05 93 1009.3
20260904050237 60 162 0.0 4.0 0.01 0.05 0.05 93 1009.3
20260904045918 60 174 1.0 4.0 0.01 0.05 0.05 93 1009.1
20260904045831 60 149 0.0 2.0 0.01 0.05 0.05 93 1009.3
20260904044624 60 4 0.0 3.0 0.01 0.05 0.05 94 1009.0
20260904043724 60 130 0.0 2.0 0.01 0.05 0.05 94 1008.9
20260904043623 60 102 0.0 3.0 0.02 0.05 0.05 94 1009.0
20260904042722 60 145 0.0 3.0 0.02 0.05 0.05 94 1008.8
20260904042223 60 260 0.0 1.0 0.03 0.05 0.05 95 1008.9
20260904041722 60 260 0.0 2.0 0.03 0.05 0.05 94 1008.8
20260904041222 59 312 0.0 2.0 0.03 0.04 0.04 94 1009.2
20260904040721 59 180 0.0 2.0 0.03 0.04 0.04 94 1009.3
20260904040217 59 174 0.0 1.0 0.04 0.04 0.04 95 1009.6
20260904035717 59 174 0.0 2.0 0.04 0.04 0.04 94 1009.8
20260904035214 59 174 0.0 3.0 0.04 0.04 0.04 94 1010.0
20260904034714 59 170 1.0 3.0 0.04 0.04 0.04 93 1009.8
20260904034213 59 163 0.0 2.0 0.04 0.04 0.04 94 1009.7
20260904033715 59 163 1.0 3.0 0.04 0.04 0.04 93 1009.8
20260904033214 59 181 1.0 3.0 0.03 0.03 0.04 93 1009.8
20260904033121 59 188 1.0 4.0 0.03 0.03 0.03 92 1009.9
20260904032215 59 116 1.0 4.0 0.02 0.02 0.02 91 1009.9
20260904031713 60 184 1.0 3.0 0.02 0.02 0.02 91 1010.1
20260904031216 60 144 1.0 4.0 0.01 0.01 0.01 90 1010.1
20260904030714 60 116 1.0 4.0 0.01 0.01 0.01 90 1009.8
20260904030215 60 239 1.0 5.0 0.00 0.00 0.00 90 1009.8
20260904030141 61 151 1.0 5.0 0.00 0.00 0.00 88 1009.6
20260904025215 61 244 1.0 4.0 0.00 0.00 0.00 87 1009.4
20260904024713 61 310 1.0 4.0 0.00 0.00 0.00 85 1009.6
20260904024215 62 288 2.0 4.0 0.00 0.00 0.00 84 1009.7
20260904023719 61 190 2.0 7.0 0.00 0.00 0.00 85 1010.0
20260904023214 62 187 2.0 10.0 0.00 0.00 0.00 84 1009.8
20260904022710 62 190 3.0 10.0 0.00 0.00 0.00 85 1010.0
20260904022630 62 187 2.0 7.0 0.00 0.00 0.00 84 1009.9
20260904021705 62 50 1.0 5.0 0.00 0.00 0.00 83 1009.9
20260904021205 62 322 1.0 3.0 0.00 0.00 0.00 85 1010.1
20260904020704 62 238 2.0 8.0 0.00 0.00 0.00 85 1009.9
20260904020203 62 261 2.0 8.0 0.00 0.00 0.00 86 1009.7
20260904020058 62 177 2.0 5.0 0.00 0.00 0.00 85 1010.0
20260904015203 62 210 2.0 8.0 0.00 0.00 0.00 85 1010.1
20260904014701 62 309 2.0 8.0 0.00 0.00 0.00 81 1010.3
20260904014158 63 224 1.0 8.0 0.00 0.00 0.00 80 1010.7
20260904013702 63 232 1.0 8.0 0.00 0.00 0.00 79 1010.8
20260904013200 63 264 1.0 5.0 0.00 0.00 0.00 79 1011.1
20260904012655 64 279 1.0 7.0 0.00 0.00 0.00 79 1011.2
20260904012157 64 277 1.0 7.0 0.00 0.00 0.00 78 1011.2
20260904011657 64 214 2.0 9.0 0.00 0.00 0.00 76 1011.2
20260904011201 64 260 2.0 9.0 0.00 0.00 0.00 77 1011.2
20260904010657 64 182 2.0 8.0 0.00 0.00 0.00 76 1011.2
20260904010152 64 220 2.0 9.0 0.00 0.00 0.00 74 1011.3
20260904005644 63 312 2.0 9.0 0.00 0.00 0.00 76 1011.5
20260904005140 63 352 2.0 9.0 0.00 0.00 0.00 76 1011.7
20260904004632 63 287 2.0 6.0 0.00 0.00 0.00 76 1011.9
20260904004126 64 302 2.0 6.0 0.00 0.00 0.00 73 1012.2
20260904003621 64 298 2.0 6.0 0.00 0.00 0.00 73 1012.1
20260904003114 64 132 2.0 8.0 0.00 0.00 0.00 72 1012.0
20260904002608 64 300 2.0 8.0 0.00 0.00 0.00 74 1012.0
20260904002115 64 219 2.0 9.0 0.00 0.00 0.00 73 1012.0
20260904001556 64 255 2.0 10.0 0.00 0.00 0.00 72 1011.9
20260904001052 64 214 3.0 10.0 0.00 0.00 0.00 73 1012.2
20260904000544 64 279 3.0 7.0 0.00 0.00 0.00 72 1012.4
20260904000039 64 315 3.0 11.0 0.00 0.00 0.00 72 1012.6
20260904000014 64 326 2.0 8.0 0.00 0.00 0.00 72 1012.8
20260903235026 64 301 2.0 9.0 0.00 0.00 0.00 72 1013.1
20260903234521 64 305 2.0 9.0 0.00 0.00 0.00 72 1013.1
20260903234504 64 4 3.0 7.0 0.00 0.00 0.00 72 1013.2
20260903233914 63 297 3.0 10.0 0.00 0.00 0.00 71 1013.1
20260903233004 63 241 3.0 10.0 0.00 0.00 0.00 70 1013.2
20260903232501 63 304 2.0 6.0 0.00 0.00 0.00 71 1013.2
20260903232405 63 288 3.0 11.0 0.00 0.00 0.00 72 1013.4
20260903231929 62 239 3.0 11.0 0.00 0.00 0.00 71 1013.6
20260903231003 62 193 3.0 9.0 0.00 0.00 0.00 71 1013.4
20260903230459 62 358 2.0 9.0 0.00 0.00 0.00 70 1013.5
20260903230419 63 339 3.0 9.0 0.00 0.00 0.00 70 1013.5
20260903225903 63 244 3.0 10.0 0.00 0.00 0.00 69 1013.6
20260903224955 63 286 3.0 10.0 0.00 0.00 0.00 69 1013.4
20260903224453 62 281 4.0 13.0 0.00 0.00 0.00 71 1013.4
20260903224413 62 230 3.0 13.0 0.00 0.00 0.00 70 1013.6
20260903223454 62 296 3.0 10.0 0.00 0.00 0.00 70 1013.5
20260903222956 62 149 2.0 10.0 0.00 0.00 0.00 71 1013.5
20260903222454 62 16 2.0 8.0 0.00 0.00 0.00 72 1013.5
20260903221952 62 289 1.0 7.0 0.00 0.00 0.00 74 1013.6
20260903221456 62 284 1.0 7.0 0.00 0.00 0.00 73 1013.9
20260903220955 62 298 2.0 7.0 0.00 0.00 0.00 75 1014.0
20260903220454 62 289 2.0 7.0 0.00 0.00 0.00 75 1014.0
20260903215952 61 290 2.0 5.0 0.00 0.00 0.00 74 1014.0
20260903215452 61 172 2.0 5.0 0.00 0.00 0.00 74 1014.1
20260903214949 61 300 2.0 7.0 0.00 0.00 0.00 75 1014.2
20260903214444 61 319 2.0 9.0 0.00 0.00 0.00 75 1014.2
20260903213945 61 297 2.0 9.0 0.00 0.00 0.00 74 1014.4
20260903213446 61 228 1.0 5.0 0.00 0.00 0.00 75 1014.4
20260903213348 61 283 1.0 6.0 0.00 0.00 0.00 76 1014.5
20260903212444 62 317 1.0 6.0 0.00 0.00 0.00 77 1014.5
20260903211945 61 232 2.0 8.0 0.00 0.00 0.00 77 1014.7
20260903211444 61 5 2.0 13.0 0.00 0.00 0.00 76 1014.6
20260903211342 61 279 2.0 13.0 0.00 0.00 0.00 76 1014.6
20260903210444 61 291 1.0 8.0 0.00 0.00 0.00 78 1014.7
20260903205942 60 234 1.0 8.0 0.00 0.00 0.00 81 1014.7
20260903205844 60 303 1.0 5.0 0.00 0.00 0.00 82 1014.7
20260903204936 60 176 1.0 5.0 0.00 0.00 0.00 82 1014.7
20260903204439 60 182 1.0 6.0 0.00 0.00 0.00 83 1014.8
20260903203938 59 164 2.0 6.0 0.00 0.00 0.00 83 1014.9
20260903203438 59 133 1.0 6.0 0.00 0.00 0.00 82 1014.8
20260903202938 59 176 1.0 3.0 0.00 0.00 0.00 82 1014.9
20260903202437 59 222 1.0 4.0 0.00 0.00 0.00 81 1014.9
20260903201937 60 322 1.0 4.0 0.00 0.00 0.00 81 1014.9
20260903201438 60 288 1.0 4.0 0.00 0.00 0.00 80 1014.9
20260903200936 60 187 2.0 4.0 0.00 0.00 0.00 80 1014.8
20260903200435 60 191 2.0 9.0 0.00 0.00 0.00 80 1014.8
20260903195935 60 224 1.0 9.0 0.00 0.00 0.00 80 1014.9
20260903195438 60 234 1.0 3.0 0.00 0.00 0.00 82 1014.7
20260903194932 59 215 1.0 3.0 0.00 0.00 0.00 81 1014.7
20260903194842 59 291 0.0 3.0 0.00 0.00 0.00 83 1014.8
20260903193932 59 301 0.0 2.0 0.00 0.00 0.00 84 1014.9
20260903193434 58 270 0.0 2.0 0.00 0.00 0.00 86 1015.0
20260903193321 57 246 0.0 2.0 0.00 0.00 0.00 90 1015.0
20260903192429 56 246 0.0 2.0 0.00 0.00 0.00 92 1015.1
20260903191927 55 357 0.0 2.0 0.00 0.00 0.00 94 1015.1
20260903191426 53 320 0.0 4.0 0.00 0.00 0.00 96 1015.2
20260903191313 53 322 0.0 4.0 0.00 0.00 0.00 97 1015.0
20260903190825 52 331 0.0 3.0 0.00 0.00 0.00 97 1015.1
20260903185923 51 241 0.0 2.0 0.00 0.00 0.00 97 1015.1
20260903185417 51 244 0.0 0.0 0.00 0.00 0.00 97 1015.2
20260903184912 51 255 0.0 0.0 0.00 0.00 0.00 96 1015.2
20260903184405 51 255 0.0 1.0 0.00 0.00 0.00 96 1015.2
20260903184031 52 199 0.0 0.0 0.00 0.00 0.00 96 1015.3
20260903182847 52 199 0.0 1.0 0.00 0.00 0.00 95 1015.1
20260903182342 53 199 0.0 1.0 0.00 0.00 0.00 95 1015.0
20260903181836 54 199 0.0 1.0 0.00 0.00 0.00 95 1015.1
20260903181331 54 199 0.0 1.0 0.00 0.00 0.00 95 1015.1
20260903180823 54 204 0.0 1.0 0.00 0.00 0.00 96 1015.1
20260903180317 54 203 0.0 2.0 0.00 0.00 0.00 97 1015.1
20260903175811 54 203 1.0 8.0 0.00 0.00 0.00 97 1015.1
20260903175306 54 122 1.0 8.0 0.00 0.00 0.00 99 1015.0
20260903174801 53 137 0.0 2.0 0.00 0.00 0.00 98 1015.0
20260903174253 53 160 0.0 1.0 0.00 0.00 0.00 98 1014.9
20260903173747 53 160 0.0 1.0 0.00 0.00 0.00 98 1014.9
20260903173241 53 159 0.0 1.0 0.00 0.00 0.00 98 1014.9
20260903172735 53 159 0.0 1.0 0.00 0.00 0.00 98 1015.0
20260903172232 53 160 0.0 3.0 0.00 0.00 0.00 99 1015.0
20260903171724 53 159 0.0 3.0 0.00 0.00 0.00 99 1014.9
20260903171217 52 209 0.0 4.0 0.00 0.00 0.00 99 1015.0
20260903170712 52 208 0.0 4.0 0.00 0.00 0.00 99 1015.2
20260903170206 51 137 0.0 1.0 0.00 0.00 0.00 98 1015.2
20260903165701 51 137 0.0 1.0 0.00 0.00 0.00 98 1015.2
20260903165551 51 137 0.0 0.0 0.00 0.00 0.00 98 1015.2
20260903164647 51 137 0.0 0.0 0.00 0.00 0.00 98 1015.1
20260903164141 51 137 0.0 1.0 0.00 0.00 0.00 98 1015.1
20260903163639 51 137 0.0 1.0 0.00 0.00 0.00 98 1014.9
20260903163131 51 137 0.0 0.0 0.00 0.00 0.00 97 1014.9
20260903162623 52 137 0.0 0.0 0.00 0.00 0.00 97 1014.9
20260903162117 52 137 0.0 0.0 0.00 0.00 0.00 97 1014.9
20260903161617 52 137 0.0 0.0 0.00 0.00 0.00 97 1014.9
20260903161114 52 137 0.0 0.0 0.00 0.00 0.00 97 1014.9
20260903160613 52 137 0.0 0.0 0.00 0.00 0.00 97 1014.9
20260903160109 53 137 0.0 0.0 0.00 0.00 0.00 97 1014.8
20260903155616 53 137 0.0 1.0 0.00 0.00 0.00 97 1014.8
20260903155110 53 137 0.0 1.0 0.00 0.00 0.00 97 1015.0
20260903154609 53 137 0.0 0.0 0.00 0.00 0.00 97 1014.8
20260903154106 53 137 0.0 0.0 0.00 0.00 0.00 97 1014.9
20260903153606 53 137 0.0 0.0 0.00 0.00 0.00 97 1015.0
20260903153104 53 137 0.0 0.0 0.00 0.00 0.00 97 1014.9
20260903152604 53 137 0.0 0.0 0.00 0.00 0.00 97 1014.8
20260903152101 53 137 0.0 0.0 0.00 0.00 0.00 97 1014.8
20260903151601 53 137 0.0 0.0 0.00 0.00 0.00 97 1014.8
20260903151102 53 137 0.0 0.0 0.00 0.00 0.00 96 1015.0
20260903150556 53 137 0.0 0.0 0.00 0.00 0.00 96 1015.1
20260903150058 53 137 0.0 0.0 0.00 0.00 0.00 96 1015.1
20260903145558 53 137 0.0 0.0 0.00 0.00 0.00 96 1015.1
20260903145451 53 137 0.0 0.0 0.00 0.00 0.00 96 1015.2
20260903144601 54 137 0.0 0.0 0.00 0.00 0.00 96 1015.3
20260903144445 54 137 0.0 0.0 0.00 0.00 0.00 96 1015.3
20260903143559 54 137 0.0 0.0 0.00 0.00 0.00 96 1015.5
20260903143101 54 137 0.0 0.0 0.00 0.00 0.00 96 1015.5
20260903142559 54 137 0.0 0.0 0.00 0.00 0.00 96 1015.4
20260903142103 54 137 0.0 0.0 0.00 0.00 0.00 96 1015.7
20260903141610 54 137 0.0 0.0 0.00 0.00 0.00 95 1015.6
20260903141100 54 137 0.0 0.0 0.00 0.00 0.00 95 1015.6
20260903140559 54 137 0.0 1.0 0.00 0.00 0.00 96 1015.9
20260903140114 54 137 0.0 1.0 0.00 0.00 0.00 96 1015.8
20260903135559 54 137 0.0 1.0 0.00 0.00 0.00 96 1015.8
20260903135101 54 178 0.0 1.0 0.00 0.00 0.00 95 1016.0
20260903134603 54 178 0.0 1.0 0.00 0.00 0.00 96 1016.0
20260903134106 54 177 0.0 1.0 0.00 0.00 0.00 95 1015.9
20260903133610 54 178 0.0 0.0 0.00 0.00 0.00 95 1016.1
20260903133109 54 178 0.0 0.0 0.00 0.00 0.00 95 1016.0
20260903132603 54 178 0.0 1.0 0.00 0.00 0.00 95 1016.1
20260903132056 54 179 0.0 1.0 0.00 0.00 0.00 96 1016.1
20260903131550 54 179 0.0 0.0 0.00 0.00 0.00 95 1016.1
20260903131047 53 179 0.0 0.0 0.00 0.00 0.00 95 1016.2
20260903130545 54 179 0.0 0.0 0.00 0.00 0.00 95 1016.1
20260903130046 54 179 0.0 0.0 0.00 0.00 0.00 94 1016.2
20260903125938 54 179 0.0 0.0 0.00 0.00 0.00 94 1016.2
20260903125043 54 179 0.0 1.0 0.00 0.00 0.00 94 1016.2
20260903124550 54 179 0.0 1.0 0.00 0.00 0.00 94 1016.3
20260903124048 54 178 0.0 1.0 0.00 0.00 0.00 94 1016.3
20260903123548 54 179 0.0 1.0 0.00 0.00 0.00 94 1016.3
20260903123043 54 178 0.0 0.0 0.00 0.00 0.00 94 1016.3
20260903122939 54 178 0.0 0.0 0.00 0.00 0.00 93 1016.2
20260903122040 54 178 0.0 0.0 0.00 0.00 0.00 93 1016.3
20260903121539 54 179 0.0 1.0 0.00 0.00 0.00 93 1016.4
20260903121038 54 179 0.0 1.0 0.00 0.00 0.00 93 1016.7
20260903120537 54 178 0.0 2.0 0.00 0.00 0.00 93 1016.5
20260903120037 54 179 0.0 2.0 0.00 0.00 0.00 93 1016.5
20260903115951 54 236 0.0 0.0 0.00 0.00 0.00 93 1016.7
20260903115432 54 236 0.0 0.0 0.00 0.00 0.00 93 1016.7
20260903114534 54 236 0.0 0.0 0.00 0.00 0.00 93 1016.9
20260903114514 54 236 0.0 0.0 0.00 0.00 0.00 92 1016.8
20260903113708 54 236 0.0 0.0 0.00 0.00 0.00 92 1016.9
20260903112537 54 236 0.0 0.0 0.00 0.00 0.00 92 1016.9
20260903112441 54 236 0.0 0.0 0.00 0.00 0.00 92 1017.0
20260903111535 55 236 0.0 0.0 0.00 0.00 0.00 92 1016.9
20260903111425 55 236 0.0 0.0 0.00 0.00 0.00 92 1017.1
20260903110557 55 236 0.0 0.0 0.00 0.00 0.00 92 1017.1
20260903110030 54 236 0.0 0.0 0.00 0.00 0.00 91 1017.2
20260903105530 54 236 0.0 1.0 0.00 0.00 0.00 91 1017.2
20260903105031 54 236 0.0 1.0 0.00 0.00 0.00 91 1017.2
20260903104528 54 236 0.0 0.0 0.00 0.00 0.00 91 1017.4
20260903104026 54 236 0.0 0.0 0.00 0.00 0.00 91 1017.4
20260903103529 54 236 0.0 0.0 0.00 0.00 0.00 91 1017.2
20260903103405 54 236 0.0 1.0 0.00 0.00 0.00 91 1017.3
20260903102527 54 236 0.0 1.0 0.00 0.00 0.00 91 1017.4
20260903102024 54 296 0.0 1.0 0.00 0.00 0.00 89 1017.5